Flag for U.S.A. Weather past 2 weeks in Sevierville, Tennessee, U.S.A.

Now
63 °F

Broken clouds.


Feels Like: 63 °F
Forecast: 48 / 66 °F
Wind: 20 mph from Southwest

Location: McGhee Tyson Airport

Current Time: Mar 4, 2015 at 8:54:16 AM

Latest Report: Mar 4, 2015 at 7:53 AM


Visibility: 10 mi

Pressure: 29.91 "Hg

Humidity: 87%

Dew point: 59 °F

Location of SeviervilleLocation

Historic Weather in Sevierville — Graph

°F

Sevierville temperature yesterday

Maximum temperature yesterday: 50 °F (at 3:53 PM)
Minimum temperature yesterday: 41 °F (at 12:53 AM)
Average temperature yesterday: 46 °F

Past Weeks' High & Low Weather Summary

 TemperatureHumidityPressure
High63 °F (Mar 4, 7:53 AM)100% (Feb 22, 12:53 AM)30.63 "Hg (Feb 22, 12:53 AM)
Low4 °F (Feb 19, 6:53 AM)45% (Feb 28, 2:53 PM)29.78 "Hg (Feb 26, 4:53 AM)
Average30 °F80%30.22 "Hg
* Reported Feb 17 7:53 AM — Mar 4 7:53 AM, Sevierville, Weather by CustomWeather, © 2015

Note: Actual official high and low records may vary slightly from our data, if they occured in-between our weather recording intervals... More about our weather records

Advertising

Sevierville weather history for previous 24 hours

 ConditionsComfort  
Time TempWeatherWind HumidityBarometerVisibility
7:53 AM
Wed, Mar 4
63 °FBroken clouds.20 mph87%29.91 "Hg10 mi
6:53 AM62 °FOvercast.20 mph90%29.91 "Hg10 mi
5:53 AM59 °FLight rain. Fog.14 mph96%29.90 "Hg6 mi
4:53 AM58 °FLight rain. Mostly cloudy.13 mph97%29.90 "Hg8 mi
3:53 AM58 °FLight rain. Fog.14 mph97%29.90 "Hg5 mi
2:53 AM57 °FLight rain. Overcast.13 mph96%29.91 "Hg9 mi
1:53 AM56 °FMostly cloudy.12 mph100%29.93 "Hg7 mi
12:53 AM51 °FFog.6 mph96%29.93 "Hg4 mi
11:53 PM
Tue, Mar 3
50 °FFog.6 mph100%29.96 "Hg1 mi
10:53 PM50 °FFog.3 mph96%29.98 "Hg1 mi
9:53 PM49 °FLight rain. Fog.No wind97%29.99 "Hg1 mi
9:03 PM48 °FLight rain. Fog.3 mph96%30.00 "Hg1 mi
8:53 PM48 °FLight rain. Fog.No wind96%30.01 "Hg1 mi
7:53 PM48 °FLight rain. Fog.No wind96%30.03 "Hg1 mi
6:53 PM48 °FLight rain. Fog.No wind96%30.02 "Hg1 mi
6:04 PM49 °FFog.No wind93%30.03 "Hg2 mi
4:53 PM49 °FLight rain. Fog.3 mph90%30.03 "Hg4 mi
3:53 PM50 °FOvercast.No wind83%30.05 "Hg7 mi
2:53 PM49 °FOvercast.9 mph84%30.07 "Hg9 mi
1:53 PM49 °FOvercast.3 mph84%30.08 "Hg10 mi
12:53 PM47 °FMore clouds than sun.3 mph86%30.13 "Hg10 mi
11:53 AM45 °FMore clouds than sun.6 mph90%30.16 "Hg10 mi
10:53 AM45 °FOvercast.No wind86%30.18 "Hg10 mi
8:53 AM43 °FOvercast.No wind82%30.21 "Hg10 mi
Weather by CustomWeather, © 2015

See weather overviewHow to use our weather pages